When you browse on this site, cookies collect data to enhance your experience and personalize the content and advertising you see.
Visit our Privacy Policy to learn more. By continuing to use the site, you agree to this use of cookies and data.
  • In Hungary
  • List of Countries
  • For 7 days
  • Water Temperature
  • Weather Map
  • News
  • Weather Widgets
  • user-avatar
    Login

    Hourly Weather Kruglovka

    Today, 26 January, Sunday

    Time Temperature Precipitation Wind Pressure Humidity
    00:00 -3°C° 0 mm 4 mps 735 mmHg 84%
    01:00 -4°C° 0 mm 4 mps 736 mmHg 84%
    02:00 -4°C° 0 mm 4 mps 736 mmHg 84%
    03:00 -4°C° 0 mm 4 mps 736 mmHg 85%
    04:00 -4°C° 0 mm 3 mps 737 mmHg 86%
    05:00 -4°C° 0 mm 3 mps 737 mmHg 87%
    06:00 -4°C° 0 mm 3 mps 737 mmHg 89%
    07:00 -4°C° 0 mm 3 mps 737 mmHg 91%
    08:00 -5°C° 0 mm 3 mps 738 mmHg 95%
    09:00 -4°C° 0 mm 4 mps 738 mmHg 91%
    10:00 -3°C° 0 mm 4 mps 738 mmHg 88%
    11:00 -2°C° 0 mm 5 mps 738 mmHg 84%
    12:00 -3°C° 0 mm 6 mps 738 mmHg 86%
    13:00 -3°C° 0 mm 6 mps 737 mmHg 87%
    14:00 -2°C° 0 mm 7 mps 737 mmHg 88%
    15:00 -2°C° 0 mm 7 mps 737 mmHg 87%
    16:00 -2°C° 0 mm 6 mps 737 mmHg 86%
    17:00 -2°C° 0 mm 6 mps 737 mmHg 85%
    18:00 -2°C° 0 mm 6 mps 737 mmHg 86%
    19:00 -2°C° 0 mm 6 mps 737 mmHg 87%
    20:00 -2°C° 0 mm 6 mps 736 mmHg 87%
    21:00 -2°C° 0 mm 6 mps 736 mmHg 87%
    22:00 -2°C° 0 mm 6 mps 737 mmHg 87%
    23:00 -2°C° 0 mm 6 mps 737 mmHg 88%

    Tomorrow, 27 January, Monday

    Time Temperature Precipitation Wind Pressure Humidity
    00:00 -1°C° 0 mm 5 mps 737 mmHg 88%
    01:00 -1°C° 0 mm 5 mps 737 mmHg 89%
    02:00 -1°C° 0 mm 5 mps 737 mmHg 89%
    03:00 -1°C° 0 mm 4 mps 737 mmHg 90%
    04:00 -1°C° 0 mm 4 mps 737 mmHg 91%
    05:00 -1°C° 0 mm 4 mps 737 mmHg 92%
    06:00 -1°C° 0 mm 4 mps 737 mmHg 94%
    07:00 -1°C° 0 mm 3 mps 737 mmHg 96%
    08:00 -1°C° 0 mm 3 mps 737 mmHg 97%
    09:00 -1°C° 0.1 mm 3 mps 737 mmHg 97%
    10:00 0°C° 0.1 mm 3 mps 737 mmHg 97%
    11:00 0°C° 0.1 mm 3 mps 737 mmHg 97%
    12:00 0°C° 0 mm 3 mps 737 mmHg 97%
    13:00 +1°C° 0 mm 2 mps 737 mmHg 97%
    14:00 +1°C° 0 mm 2 mps 737 mmHg 97%
    15:00 +1°C° 0.1 mm 2 mps 736 mmHg 98%
    16:00 -1°C° 0.1 mm 2 mps 736 mmHg 98%
    17:00 -1°C° 0.1 mm 2 mps 736 mmHg 98%
    18:00 -1°C° 0.4 mm 2 mps 736 mmHg 98%
    19:00 -1°C° 0.4 mm 2 mps 736 mmHg 98%
    20:00 -1°C° 0.4 mm 2 mps 736 mmHg 98%
    21:00 -1°C° 0.3 mm 2 mps 736 mmHg 98%
    22:00 -1°C° 0.3 mm 3 mps 735 mmHg 98%
    23:00 -1°C° 0.3 mm 3 mps 735 mmHg 97%

    Day after tomorrow, 28 January, Tuesday

    Time Temperature Precipitation Wind Pressure Humidity
    00:00 -1°C° 0.2 mm 2 mps 735 mmHg 98%
    01:00 -1°C° 0.2 mm 2 mps 735 mmHg 98%
    02:00 -1°C° 0.2 mm 2 mps 734 mmHg 98%
    03:00 -1°C° 0.2 mm 2 mps 734 mmHg 98%
    04:00 -1°C° 0.2 mm 2 mps 734 mmHg 98%
    05:00 -1°C° 0.2 mm 2 mps 734 mmHg 98%
    06:00 +1°C° 0.2 mm 1 mps 734 mmHg 98%
    07:00 +1°C° 0.2 mm 1 mps 734 mmHg 98%
    08:00 +1°C° 0.2 mm 1 mps 734 mmHg 98%
    09:00 -1°C° 0 mm 2 mps 734 mmHg 97%
    10:00 -1°C° 0 mm 2 mps 733 mmHg 96%
    11:00 -1°C° 0 mm 2 mps 733 mmHg 96%
    12:00 -1°C° 0 mm 2 mps 733 mmHg 96%
    13:00 -1°C° 0 mm 2 mps 733 mmHg 97%
    14:00 -1°C° 0 mm 2 mps 733 mmHg 97%
    15:00 -1°C° 0 mm 3 mps 733 mmHg 97%
    16:00 -1°C° 0 mm 3 mps 733 mmHg 97%
    17:00 0°C° 0 mm 3 mps 732 mmHg 97%
    18:00 0°C° 0 mm 3 mps 732 mmHg 97%
    19:00 0°C° 0 mm 3 mps 732 mmHg 97%
    20:00 0°C° 0 mm 3 mps 732 mmHg 96%
    21:00 -1°C° 0 mm 3 mps 732 mmHg 96%
    22:00 -1°C° 0 mm 3 mps 732 mmHg 95%
    23:00 -1°C° 0 mm 3 mps 732 mmHg 95%

    29 January, Wednesday

    Time Temperature Precipitation Wind Pressure Humidity
    00:00 -2°C° 0 mm 3 mps 731 mmHg 94%
    01:00 -3°C° 0 mm 4 mps 731 mmHg 94%
    02:00 -3°C° 0 mm 4 mps 731 mmHg 93%
    03:00 -4°C° 0 mm 4 mps 730 mmHg 94%
    04:00 -4°C° 0 mm 4 mps 730 mmHg 94%
    05:00 -4°C° 0 mm 4 mps 729 mmHg 95%
    06:00 -4°C° 0 mm 4 mps 729 mmHg 95%
    07:00 -5°C° 0 mm 5 mps 729 mmHg 96%
    08:00 -4°C° 0 mm 5 mps 729 mmHg 96%
    09:00 -4°C° 0 mm 5 mps 729 mmHg 96%
    10:00 -4°C° 0 mm 5 mps 729 mmHg 95%
    11:00 -3°C° 0 mm 6 mps 729 mmHg 95%
    12:00 -2°C° 0 mm 5 mps 728 mmHg 95%
    13:00 -1°C° 0 mm 5 mps 728 mmHg 96%
    14:00 -1°C° 0 mm 5 mps 727 mmHg 97%
    15:00 -1°C° 0.1 mm 5 mps 727 mmHg 97%
    16:00 -1°C° 0.1 mm 5 mps 727 mmHg 97%
    17:00 -1°C° 0.1 mm 5 mps 726 mmHg 97%
    18:00 -1°C° 0.2 mm 5 mps 726 mmHg 97%
    19:00 -1°C° 0.2 mm 5 mps 725 mmHg 97%
    20:00 -1°C° 0.2 mm 5 mps 725 mmHg 97%
    21:00 -1°C° 0.1 mm 5 mps 724 mmHg 97%
    22:00 -1°C° 0.1 mm 5 mps 724 mmHg 97%
    23:00 -1°C° 0.1 mm 5 mps 724 mmHg 96%

    30 January, Thursday

    Time Temperature Precipitation Wind Pressure Humidity
    00:00 -1°C° 0 mm 5 mps 723 mmHg 96%
    01:00 -1°C° 0 mm 5 mps 723 mmHg 96%
    02:00 -1°C° 0 mm 5 mps 722 mmHg 95%
    03:00 -1°C° 0.1 mm 5 mps 722 mmHg 96%
    04:00 -1°C° 0.1 mm 5 mps 721 mmHg 96%
    05:00 -1°C° 0.1 mm 5 mps 721 mmHg 97%
    06:00 -2°C° 0.2 mm 5 mps 721 mmHg 97%
    07:00 -2°C° 0.2 mm 5 mps 721 mmHg 97%
    08:00 -2°C° 0.2 mm 5 mps 720 mmHg 97%
    09:00 -2°C° 0.5 mm 5 mps 721 mmHg 97%
    10:00 -2°C° 0.5 mm 5 mps 721 mmHg 97%
    11:00 -2°C° 0.5 mm 5 mps 721 mmHg 97%
    12:00 -2°C° 0.5 mm 5 mps 721 mmHg 97%
    13:00 -2°C° 0.5 mm 4 mps 721 mmHg 97%
    14:00 -2°C° 0.5 mm 4 mps 721 mmHg 98%
    15:00 -2°C° 0.5 mm 4 mps 722 mmHg 98%
    16:00 -1°C° 0.5 mm 3 mps 722 mmHg 98%
    17:00 -2°C° 0.5 mm 3 mps 722 mmHg 98%
    18:00 -2°C° 0.2 mm 3 mps 723 mmHg 97%
    19:00 -2°C° 0.2 mm 3 mps 723 mmHg 97%
    20:00 -2°C° 0.2 mm 2 mps 724 mmHg 97%
    21:00 -2°C° 0.1 mm 2 mps 724 mmHg 97%
    22:00 -3°C° 0.1 mm 2 mps 724 mmHg 97%
    23:00 -3°C° 0.1 mm 2 mps 725 mmHg 97%

    31 January, Friday

    Time Temperature Precipitation Wind Pressure Humidity
    00:00 -3°C° 0.1 mm 2 mps 725 mmHg 97%
    01:00 -3°C° 0.1 mm 2 mps 725 mmHg 97%
    02:00 -3°C° 0.1 mm 2 mps 725 mmHg 97%
    03:00 -3°C° 0.1 mm 2 mps 726 mmHg 97%
    04:00 -3°C° 0.1 mm 2 mps 726 mmHg 97%
    05:00 -4°C° 0.1 mm 2 mps 726 mmHg 97%
    06:00 -4°C° 0.1 mm 2 mps 726 mmHg 97%
    07:00 -3°C° 0.1 mm 2 mps 727 mmHg 97%
    08:00 -3°C° 0.1 mm 2 mps 727 mmHg 97%
    09:00 -3°C° 0.1 mm 2 mps 727 mmHg 96%
    10:00 -2°C° 0.1 mm 2 mps 727 mmHg 95%
    11:00 -2°C° 0.1 mm 2 mps 728 mmHg 94%
    12:00 -2°C° 0.1 mm 2 mps 728 mmHg 94%
    13:00 -2°C° 0.1 mm 3 mps 728 mmHg 93%
    14:00 -1°C° 0.1 mm 3 mps 728 mmHg 92%
    15:00 -2°C° 0 mm 2 mps 728 mmHg 93%
    16:00 -2°C° 0 mm 2 mps 729 mmHg 94%
    17:00 -2°C° 0 mm 2 mps 729 mmHg 96%
    18:00 -3°C° 0.1 mm 2 mps 730 mmHg 96%
    19:00 -3°C° 0.1 mm 2 mps 730 mmHg 96%
    20:00 -3°C° 0.1 mm 2 mps 731 mmHg 97%
    21:00 -4°C° 0 mm 2 mps 731 mmHg 96%
    22:00 -5°C° 0 mm 2 mps 731 mmHg 96%
    23:00 -5°C° 0 mm 2 mps 732 mmHg 96%
    Show more